COSMOS 1627

导读

COSMOS 1627是苏联(发射时归属独联体CIS区域)于1985年2月1日08:00发射的卫星,隶属于苏联/俄罗斯“宇宙(Cosmos/Kosmos)”系列无人卫星。该系列卫星自1962年启动,广泛应用于科学研究、导航与军事侦察等领域,苏联时期常以此命名掩盖其他项目任务属性,COSMOS 1627也延续了这一命名传统,服务当时航天发展需求。

基本信息
目录编号:
15505
目录名称:
COSMOS 1627
国际标识:
1985-011A
轨道中心:
EARTH
卫星名称:
COSMOS 1627
卫星全名:
--
卫星状态:
在轨 (已飞行15200 天)
发射日期:
1985-02-01 UTC
国别 :
俄罗斯(独联体) (CIS)
星等 :
--
该卫星已列入 空间交会检测服务 Space Conjunction Data Service (SCDS) ,当前飞行风险评估等级: 无高风险
轨道信息
数据来源 国际轨道数据
星历时间: 2026-09-14T12:31:07+0800
4小时前
查看轨道信息
半长轴: 7361.214km
偏心率: 0.0043316
轨道倾角: 82.925°
近地点辐角 100.449°
升交点赤经 341.123°
平近点角 286.639°
近地点: 951.191km
远地点: 1014.963km
周期: 104.757分钟
每日圈数: 13.746074
详细信息
使用方式:
暂无
2D轨道图
3D轨道图
轨道高度分析图
轨道倾角分析图
轨道综合分析图
查看轨道综合分析图
交会数据列表
事件ID 空间交会对象 最接近时刻(TCA) 交会距离 交会风险概率(CRP) 交会风险指数(CRI) 操作
CDM_260916-002601-550501-673623
2026-09-16T
00:26:09+0000
1.099 km
极远距离
1.764079E-5 中风险 0.6
CDM_260915-204300-601901-550524
2026-09-15T
20:43:57+0000
2.460 km
极远距离
1.773246E-6 低风险 0.4
与全量物体交会距离演化趋势 订阅飞行安全评估服务
与全量物体交会风险概率演化趋势 订阅飞行安全评估服务